Terminal Aerodrome Forecast
Issued by NWS

Home | Current Version | Previous Version | Text Only | Print | Product List | Glossary On
Versions: 1 2 3 4 5 6 7 8 9 10 11 12 13 14 15 16
559
FTUS44 KLIX 271503 AAA
TAFMCB
TAF AMD
KMCB 271503Z 2715/2812 19010KT P6SM SCT035 BKN050
     FM280600 20006KT P6SM BKN010
     FM280700 20006KT P6SM BKN008
     FM281000 20007KT P6SM BKN003=

USA.gov is the U.S. government's official web portal to all federal, state and local government web resources and services.